Tracking 27112 objects as of 26-Mar-2023
HD Live streaming from Space Station
objects crossing your sky now

STARLINK-3834

Track STARLINK-3834 now!
10-day predictions
STARLINK-3834 is classified as:


NORAD ID: 52368
Int'l Code: 2022-045AP
Perigee: 546.2 km
Apogee: 547.7 km
Inclination: 53.2 °
Period: 95.4 minutes
Semi major axis: 6917 km
RCS: Unknown
Launch date: April 29, 2022
Source: United States (US)
Launch site: AIR FORCE EASTERN TEST RANGE (AFETR)
Your satellite tracking list
Your tracking list is empty




NASA's NSSDC Master Catalog

Two Line Element Set (TLE):
1 52368U 22045AP  23085.05027477  .00001704  00000-0  12523-3 0  9995
2 52368  53.2161 355.8125 0001117  62.8181 297.2925 15.08809115 52921
Source of the keplerian elements: AFSPC